CARTOSAT-2F

Last updated on Sun Dec 14 2025 00:02:32 GMT+0000 (Coordinated Universal Time)

1 43111U 18004A 25347.34111795 .00006726 00000+0 32193-3 0 9996 2 43111 97.4319 44.9687 0001121 140.2572 219.8745 15.19285590439118
UTC large
Height (km)
Speed (km/s)
/
Latitude / Longitude
Inclination (degrees)
Orbital Period (minutes)
Azimuth
Elevation
Range (km)
Doppler Factor

Next 0 passes for location: London (51.5072 / 0.1276)

Sorry there are no passes over London.